Location: Butte
(46.0040°N, 112.5340°W)
Time: 04:53:27
(UTC-06:00)

Daily predictions for brighter satellites

Satellite Brightness Start Highest point End
(mag) Time Altitude Azimuth Time Altitude Azimuth Time Altitude Azimuth
Cosmos 1455 2.1 00:04:09 10° N 00:07:58 89° E 00:09:00 46° S
Cosmos 2074 Rocket 4.1 00:04:19 10° N 00:10:36 71° E 00:13:52 30° SSE
Cosmos 1943 Rocket 4.1 00:11:43 13° ESE 00:12:29 13° E 00:14:54 10° ENE
Aureole 3 Rocket 4.3 00:11:17 17° SSW 00:17:09 65° W 00:22:27 10° N
Cosmos 2221 4.4 00:16:01 10° NW 00:19:22 22° W 00:21:54 14° SW
RESURS DK-1 2.4 00:17:46 30° SW 00:19:46 80° WNW 00:23:56 10° NNE
Cosmos 332 Rocket 4.3 00:17:25 10° NNW 00:22:15 52° ENE 00:24:21 30° SE
Terra 3.4 00:20:16 17° SW 00:22:54 27° W 00:26:57 10° NW
BREEZE M DEB (TANK) 4.4 00:01:39 10° SW 00:23:25 63° SSE 00:28:30 10° ENE
COBE Rocket 4.1 00:27:20 10° N 00:32:25 73° WNW 00:35:04 29° SSW
SAR-Lupe-4 3.8 00:31:59 50° SW 00:32:34 58° WSW 00:36:08 10° NNW
Cosmos 1328 Rocket 3.5 00:29:16 10° NNW 00:33:38 77° W 00:34:55 45° S
Cosmos 2327 Rocket 4.5 00:28:30 10° N 00:34:48 87° E 00:37:50 33° S
COSMOS 2487 3.3 00:32:24 10° N 00:35:47 39° ENE 00:36:24 36° E
Cosmos 1140 Rocket 4.1 00:35:08 34° SE 00:36:21 40° ESE 00:41:07 10° NE
Cosmos 2228 Rocket 3.1 00:32:01 10° N 00:36:29 75° E 00:37:44 46° SSE
Cosmos 614 Rocket 4.4 00:36:47 36° SE 00:38:04 43° ESE 00:42:56 10° NNE
Cosmos 1610 Rocket 4.5 00:32:29 10° N 00:38:46 77° E 00:41:36 34° SSE
Cosmos 1743 Rocket 3.5 00:39:41 48° SSE 00:40:49 73° E 00:45:15 10° NNE
SL-8 R/B 4.1 00:37:30 10° W 00:42:19 64° N 00:47:08 10° E
ADEOS Rocket 3.3 00:36:52 10° NNE 00:42:47 57° E 00:45:35 33° SSE
CZ-4C R/B 3.6 00:45:33 44° ESE 00:46:23 54° ENE 00:50:04 10° N
NOSS 8 (F) 4.2 00:47:52 71° W 00:48:06 78° NW 00:51:24 10° NE
Meteor 2-10 Rocket 3.5 00:43:40 10° N 00:48:51 86° ENE 00:50:49 40° SSE
Cosmos 1441 Rocket 3.8 00:45:31 10° NNW 00:49:09 44° W 00:49:46 40° SW
Cosmos 2184 Rocket 4.2 00:44:00 10° NNW 00:50:15 63° W 00:53:16 31° SSW
CENTAUR R/B 3.5 00:42:48 10° NW 00:50:25 50° WSW 00:54:31 29° S
Cosmos 2278 Rocket 4.2 00:47:34 10° WSW 00:52:12 25° NW 00:56:53 10° N
Cosmos 1954 Rocket 4.2 00:51:25 41° SSE 00:52:51 55° ESE 00:57:54 10° NNE
Cosmos 676 Rocket 4.0 00:53:52 42° S 00:55:31 67° ESE 01:00:40 10° NNE
Meteor 2-16 Rocket 4.5 00:50:10 10° N 00:56:21 78° E 00:59:03 36° SSE
Cosmos 2154 Rocket 4.0 00:51:14 10° N 00:57:39 88° E 01:00:29 36° S
Cosmos 407 Rocket 3.6 00:56:01 32° SW 00:58:25 73° WNW 01:03:37 10° NNE
Cosmos 405 Rocket 3.3 00:58:08 10° NNW 01:01:38 41° W 01:02:04 39° WSW
Cosmos 1900 4.2 01:02:31 42° SSW 01:04:12 81° ESE 01:09:08 10° NE
Cosmos 1500 Rocket 3.5 01:04:32 49° SSW 01:05:37 77° W 01:09:57 10° N
Cosmos 2181 Rocket 4.4 01:03:43 32° SE 01:06:18 50° E 01:12:17 10° NNE
USA 234 4.1 01:02:19 10° ENE 01:07:53 29° SE 01:08:49 28° SE
Cosmos 1933 4.5 01:06:05 10° N 01:09:45 33° ENE 01:10:44 29° ESE
SL-19 R/B 4.4 01:06:29 10° N 01:11:55 66° WNW 01:14:24 31° SW
Cosmos 1190 Rocket 4.5 01:09:49 26° SW 01:12:38 55° WNW 01:17:46 10° NNE
Cosmos 304 Rocket 4.2 01:08:36 10° NNW 01:13:20 55° ENE 01:15:08 34° SE
Cosmos 2341 Rocket 4.0 01:08:13 10° N 01:14:38 80° E 01:17:29 36° SSE
Cosmos 962 Rocket 4.4 01:09:10 10° N 01:15:25 84° E 01:18:02 37° SSE
Cosmos 1151 Rocket 3.8 01:11:35 10° NNW 01:15:35 39° W 01:16:30 34° WSW
SL-8 Rocket 4.3 01:13:18 10° N 01:19:31 60° ENE 01:22:32 31° SE
Cosmos 2369 Rocket 2.3 01:18:27 41° S 01:20:17 61° ESE 01:25:52 10° NNE
Mayak -0.9 01:16:14 10° N 01:20:21 58° WNW 01:21:27 42° SW
Lacrosse 5 4.3 01:18:06 10° NW 01:22:09 23° N 01:26:13 10° NE
ALOS 2 3.0 01:21:19 42° SW 01:22:12 49° W 01:26:29 10° NNW
Cosmos 2218 Rocket 4.5 01:16:23 10° N 01:22:25 52° ENE 01:25:29 28° SE
ATLAS 5 CENTAUR R/B 4.0 01:22:21 10° W 01:26:16 25° NNW 01:30:34 10° NNE
Cosmos 1023 Rocket 4.5 01:24:32 39° SW 01:26:27 75° WNW 01:31:34 10° NNE
MOS 1 Rocket 4.3 01:25:59 10° NNE 01:30:25 34° E 01:31:35 29° ESE
Cosmos 1570 Rocket 4.4 01:25:52 10° NNW 01:31:05 57° ENE 01:33:32 30° SE
Cosmos 371 Rocket 4.0 01:28:08 10° NW 01:32:38 38° WSW 01:33:35 34° SW
Cosmos 1825 4.2 01:33:34 17° E 01:34:10 17° E 01:36:40 10° NE
Cosmos 2082 Rocket 4.3 01:34:11 10° WNW 01:36:47 13° W 01:38:31 12° WSW
JB-3 4.1 01:33:20 10° NNE 01:37:13 85° WNW 01:37:43 66° SSW
H-2A R/B 2.2 01:37:33 48° SW 01:38:04 52° W 01:42:06 10° NNW
Cosmos 1850 Rocket 4.1 01:37:43 44° SSE 01:39:13 63° ESE 01:44:25 10° NNE
Cosmos 1666 Rocket 3.8 01:40:01 46° SE 01:40:52 55° E 01:45:05 10° NNE
Cosmos 2366 rocket 4.0 01:42:03 10° N 01:48:14 74° E 01:51:05 34° SSE
CZ-4B R/B 4.1 01:48:23 10° N 01:53:30 51° WNW 01:55:50 30° SW
Cosmos 1959 Rocket 4.5 01:47:23 10° N 01:53:47 87° E 01:56:41 35° S
CZ-4B R/B 3.9 01:52:53 11° E 01:54:12 14° ENE 01:55:52 10° NNE
Timation 2 Rocket 4.5 01:48:15 10° NW 01:54:43 51° WSW 01:57:20 34° SSW
In-Cosmos 22 Rocket 4.2 01:52:56 38° SW 01:54:56 66° WNW 02:00:22 10° N
Cosmos 1943 Rocket 2.1 01:53:13 40° SSW 01:55:19 87° ESE 02:00:57 10° NNE
deb Chang Zheng 4 3.8 01:57:27 10° N 02:01:50 64° WNW 02:03:04 43° SW
Cosmos 2263 4.1 02:03:48 37° SSW 02:06:07 84° WNW 02:11:47 10° NNE
Cosmos 2098 Rocket 4.4 02:00:35 10° NNW 02:07:52 62° W 02:10:51 34° SSW
Cosmos 1892 2.9 02:07:30 50° WSW 02:08:00 55° WNW 02:11:43 10° N
Resurs 1-4 Rocket 4.3 02:09:44 10° NE 02:12:42 15° E 02:15:38 10° ESE
SL-16 R/B 4.2 02:08:20 10° ESE 02:13:30 29° ENE 02:18:40 10° N
PSLV R/B 3.9 02:08:47 10° NNE 02:13:32 65° ESE 02:15:02 41° SSE
Cosmos 1833 4.1 02:08:59 10° NNW 02:14:36 81° WSW 02:17:08 34° SSE
Cosmos 841 Rocket 4.3 02:12:46 10° NNW 02:17:50 48° ENE 02:21:36 17° SE
GP-B 4.3 02:14:09 10° NNE 02:18:15 35° E 02:20:09 24° SE
Cosmos 405 2.9 02:18:57 67° SSE 02:19:16 75° E 02:22:50 10° NNE
Cosmos 2242 Rocket 3.5 02:20:21 10° N 02:24:51 85° E 02:26:15 44° SSE
SL-8 R/B 3.6 02:20:13 10° WNW 02:25:04 84° SSW 02:29:54 10° ESE
Sich 1 3.7 02:24:58 34° WSW 02:26:13 44° WNW 02:30:28 10° N
Cosmos 1741 Rocket 4.4 02:24:26 31° SW 02:26:48 56° WNW 02:32:01 10° NNE
Cosmos 468 Rocket 4.0 02:23:48 10° NNW 02:28:54 64° WSW 02:30:41 39° S
CZ-4C R/B 3.0 02:32:05 58° S 02:32:46 87° WSW 02:36:29 10° NNW
Cosmos 2219 4.1 02:31:45 10° NNW 02:37:14 46° ENE 02:42:38 10° SE
Cosmos 1862 Rocket 3.6 02:34:15 10° NNW 02:38:45 73° W 02:40:09 43° S
BREEZE-M DEB (TANK) 3.5 02:40:19 24° ESE 02:40:19 24° ESE 02:41:52 10° ESE
Cosmos 1867 3.7 02:37:59 36° S 02:40:07 62° ESE 02:45:31 10° NE
Landsat 5 3.3 02:38:57 40° SSE 02:40:14 73° ENE 02:44:08 10° N
Cosmos 1703 Rocket 4.4 02:36:06 10° N 02:40:20 44° ENE 02:42:49 22° SE
COSMOS 2455 3.0 02:35:59 10° NNW 02:42:03 76° NE 02:47:54 11° SE
USA 229 DEB 4.2 02:37:12 10° NW 02:44:22 67° NE 02:51:42 10° SE
USA 229 4.2 02:37:19 10° NW 02:44:28 66° NE 02:51:49 10° SE
Cosmos 1821 Rocket 4.1 02:41:08 10° N 02:47:29 75° E 02:51:47 22° SSE
Lacrosse 4 Rocket 1.4 02:48:03 42° SSW 02:49:31 86° ESE 02:54:02 10° NNE
Cosmos 1818 3.9 02:44:49 10° NW 02:50:02 46° WSW 02:51:57 33° SSW
USA 234 3.2 02:44:48 10° NE 02:51:23 89° NW 02:56:09 20° SW
Cosmos 1408 3.1 02:51:12 39° WSW 02:51:57 46° WNW 02:55:32 10° N
Cosmos 1782 2.7 02:48:03 10° NNW 02:52:01 76° W 02:53:09 45° S
Cosmos 1633 Rocket 4.2 02:50:31 26° WSW 02:52:02 33° WNW 02:56:04 10° N
Cosmos 2297 Rocket 4.0 02:53:52 10° N 02:58:51 31° NE 03:03:47 10° ESE
ATLAS CENTAUR R/B 3.3 03:00:46 14° SE 03:01:58 16° ESE 03:04:27 10° ENE
Cosmos 1470 Rocket 4.1 03:00:32 32° SW 03:02:10 48° WNW 03:06:30 10° N
Cosmos 2369 Rocket 3.9 03:00:13 11° WSW 03:04:44 26° NW 03:09:25 10° N
Cosmos 1486 Rocket 4.1 03:02:23 30° S 03:05:03 69° ESE 03:10:22 10° NNE
Meteor 1-27 Rocket 4.1 02:59:28 10° N 03:05:17 65° ENE 03:10:17 15° SSE
Lacrosse 5 3.4 03:01:33 10° NW 03:06:18 38° NNE 03:11:01 10° E
Cosmos 44 4.0 03:04:22 27° SSE 03:06:20 40° ESE 03:10:58 10° NE
Meteor 1-10 Rocket 4.2 03:00:49 10° NNW 03:06:26 78° W 03:09:50 25° S
Cosmos 2227 Rocket 3.6 03:02:40 10° NNW 03:07:57 38° NE 03:13:12 10° ESE
Cosmos 1825 3.1 03:08:25 29° WSW 03:09:26 35° WNW 03:12:56 10° N
Cosmos 1606 3.8 03:13:35 10° NNW 03:16:53 28° W 03:17:35 26° WSW
Cosmos 1656 Rocket 4.2 03:13:56 23° SW 03:17:18 53° WNW 03:22:49 10° NNE
Meteor 1-4 Rocket 3.4 03:20:24 23° SSE 03:22:16 43° E 03:25:50 10° NNE
Meteor 2-17 Rocket 4.4 03:16:59 10° NNW 03:23:08 77° W 03:27:31 20° S
Cosmos 1689 Rocket 2.7 03:25:19 38° WSW 03:25:37 39° W 03:28:30 10° NNW
Cosmos 1763 Rocket 4.3 03:21:48 10° NW 03:26:13 31° W 03:27:55 25° SW
CZ-4B R/B 2.1 03:26:18 31° WSW 03:26:29 31° W 03:29:18 10° NNW
BREEZE-M DEB (TANK) 3.5 03:18:12 10° W 03:27:08 89° NNE 03:30:28 10° E
Cosmos 292 Rocket 4.5 03:23:52 10° NW 03:28:17 36° WSW 03:30:09 26° SSW
Cosmos 1184 Rocket 2.7 03:26:43 10° N 03:30:00 88° E 03:31:30 30° S
Cosmos 1503 Rocket 4.2 03:28:49 22° S 03:32:03 63° ESE 03:37:11 10° NNE
Cosmos 1862 3.3 03:30:19 31° SSW 03:32:06 69° W 03:36:05 10° N
Cosmos 540 Rocket 3.4 03:28:37 10° NNW 03:33:43 65° WSW 03:37:32 17° S
NPP 3.6 03:29:03 10° NNE 03:34:28 86° WNW 03:38:02 22° SSW
CZ-2D R/B 2.3 03:29:47 10° NNE 03:35:07 72° ESE 03:39:00 19° S
ARIANE 5 R/B 3.3 03:34:27 10° NNE 03:39:16 46° E 03:43:28 13° S
Cosmos 1943 Rocket 4.2 03:35:54 10° W 03:39:51 19° NW 03:43:49 10° N
CBERS-1 4.0 03:35:05 10° NNE 03:40:15 84° WNW 03:43:43 21° SSW
Cosmos 1605 Rocket 3.9 03:37:49 10° N 03:43:57 85° W 03:49:43 12° S
IRS-P3 4.1 03:39:06 10° NNE 03:44:27 80° WNW 03:48:12 20° SSW
Resurs 1-4 Rocket 2.1 03:47:48 10° NNE 03:53:10 80° WNW 03:57:10 18° SSW
Cosmos 1934 Rocket 4.3 03:47:32 10° NNW 03:53:37 50° W 03:58:18 17° SSW
SL-16 R/B 2.7 03:51:41 15° S 03:56:48 54° W 04:02:51 10° NNW
Cosmos 1812 2.8 03:53:13 10° N 03:57:06 76° E 04:00:56 10° SSE
MOZ.5/SAFIR/RUBIN 5/SL-8 3.7 03:53:43 13° S 03:57:55 72° WSW 04:02:34 10° NNW
NOSS 3-1 (C) 4.0 03:51:04 10° NW 03:58:36 79° SW 04:07:03 10° SSE
Cosmos 1869 Rocket 4.1 03:57:53 20° SW 04:00:30 43° WNW 04:04:44 10° N
Cosmos 1697 Rocket 4.1 03:56:03 10° SSE 04:00:56 31° ESE 04:05:51 10° NE
Okean 3 4.4 03:58:22 10° N 04:02:26 47° ENE 04:06:31 10° SSE
SL-08 R/B 3.7 03:59:48 17° SSW 04:03:04 44° W 04:07:33 10° NNW
PSLV R/B 3.9 04:00:02 11° S 04:04:05 76° WSW 04:08:18 10° NNW
H-2A R/B 2.5 04:01:01 10° N 04:04:57 61° WNW 04:07:35 19° SSW
Cosmos 1437 Rocket 3.8 04:06:37 18° SW 04:09:08 36° WNW 04:12:56 10° N
Cosmos 2221 Rocket 4.2 04:05:36 10° NNW 04:09:44 39° W 04:12:50 16° SSW
Genesis I 4.2 04:07:36 10° WNW 04:11:09 28° WSW 04:13:51 14° S
Cosmos 1633 2.6 04:08:52 15° S 04:11:46 82° E 04:15:25 10° N
Okean 1-7 4.2 04:08:59 10° NNW 04:12:40 27° W 04:15:09 16° SW
Cosmos 2219 4.1 04:16:19 10° NW 04:21:09 30° WSW 04:25:43 11° SSW
Spot 4 Rocket 4.1 04:18:36 10° N 04:23:45 72° WNW 04:28:34 12° SSW
Cosmos 2369 3.9 04:21:03 11° SSW 04:26:23 72° ESE 04:32:03 10° NNE
COSMOS 2455 4.2 04:23:06 10° WNW 04:27:19 20° WSW 04:30:56 12° SW
Cosmos 1980 Rocket 3.8 04:23:59 10° SSE 04:28:46 30° ESE 04:33:34 10° NE
ADEOS 3.9 04:23:32 10° NNE 04:28:46 68° ESE 04:33:58 10° S
Lacrosse 4 Rocket 3.8 04:26:00 10° W 04:28:52 17° NW 04:31:47 10° N
Cosmos 1378 Rocket 4.0 04:28:53 10° N 04:33:20 67° E 04:37:45 10° SSE
IRS-1D 4.1 04:29:05 10° N 04:33:55 44° WNW 04:38:27 11° SW
USA 234 4.3 04:27:57 10° NE 04:34:01 42° NNW 04:40:06 10° W
NOSS 3-1 (A) 4.1 04:28:38 10° NW 04:36:10 67° WSW 04:44:34 10° SSE
BREEZE-M DEB (TANK) 3.7 04:33:25 10° WNW 04:37:01 81° NNE 04:44:37 10° ESE
Cosmos 2173 Rocket 4.0 04:31:05 10° N 04:37:14 85° W 04:43:19 10° S
ATLAS CENTAUR R/B 1.7 04:37:00 12° SW 04:40:27 53° NW 04:44:30 10° NNE
Cosmos 2297 Rocket 2.4 04:37:41 10° NW 04:43:07 49° WSW 04:48:31 10° S
Cosmos 1727 Rocket 4.4 04:37:32 10° SSW 04:43:28 48° WNW 04:49:33 10° N
Cosmos 1538 Rocket 4.2 04:38:03 10° NNW 04:43:29 85° ENE 04:48:51 10° SSE
Cosmos 1733 Rocket 3.4 04:41:06 10° SSW 04:45:17 48° WNW 04:49:31 10° N
USA 81 4.1 04:40:51 10° S 04:46:06 76° W 04:51:25 10° N
Cosmos 44 4.5 04:43:16 10° WSW 04:47:38 35° NW 04:52:18 10° NNE
ASTEX 1 3.4 04:44:26 10° S 04:49:27 80° W 04:54:28 10° N
Shenzhou-11 Module 3.9 04:47:27 10° SSW 04:49:27 17° SSE 04:51:28 10° ESE
Lacrosse 5 1.9 04:44:30 10° NW 04:49:30 61° SW 04:54:29 10° SSE
Cosmos 44 Rocket 4.0 04:46:51 10° WSW 04:51:34 47° NW 04:56:29 10° NNE
ATLAS CENTAUR Rocket 4.0 04:48:56 10° S 04:51:46 15° SSE 04:56:30 10° ESE
Cosmos 2227 Rocket 2.7 04:46:48 10° NW 04:52:00 38° WSW 04:57:12 10° S
Cosmos 2278 3.8 04:46:57 10° SSW 04:52:36 82° WNW 04:58:19 10° NNE
Cosmos 968 Rocket 4.0 04:48:47 10° SW 04:53:53 49° WNW 04:59:01 10° NNE
Cosmos 1271 Rocket 3.0 04:50:00 10° S 04:53:56 71° E 04:57:50 10° NNE
Cosmos 1674 Rocket 3.9 04:50:43 10° NNW 04:54:49 44° W 04:58:56 10° SSW
Cosmos 1777 Rocket 4.3 04:50:41 10° S 04:55:51 70° ESE 05:01:04 10° NNE
ADEOS II 2.2 04:51:47 10° NNE 04:57:05 89° WNW 05:02:21 10° SSW
USA 102 3.8 04:57:00 10° SSE 05:00:32 73° WSW 05:04:21 10° NNW
BREEZE M DEB (TANK) 1.5 05:00:34 10° WNW 05:03:38 73° NNE 05:05:39 10° ESE
Cosmos 1656 4.0 04:58:24 10° SW 05:04:01 59° WNW 05:09:38 10° NNE
Gbstr 26 Del rocket 3.9 05:00:54 10° SSW 05:04:19 34° SE 05:08:05 10° ENE
CZ-2D R/B 4.0 05:00:25 10° N 05:04:27 44° WNW 05:08:22 10° SW
Cosmos 1356 3.7 05:01:07 10° N 05:04:36 75° E 05:08:04 10° SSE
Cosmos 389 Rocket 4.0 05:01:42 10° SW 05:04:41 24° WNW 05:07:42 10° NNW
Cosmos 1908 Rocket 3.6 05:00:48 10° SSW 05:05:14 72° W 05:09:41 10° N
Cosmos 2016 Rocket 4.1 05:00:01 10° NNW 05:06:23 74° W 05:12:40 10° S
